Location: Vancouver
(49.2500°N, 123.1330°W)
Time: 02:50:40
(UTC-07:00)

Oscar 11 - Visible Passes

Search period start: 22 August 2014 00:00
Search period end: 01 September 2014 00:00
Orbit: 618 x 629 km, 97.8° (Epoch: 21 August)

Date Brightness Start Highest point End Pass type
(mag) Time Alt. Az. Time Alt. Az. Time Alt. Az.
22 Aug 8.4 21:01:32 10° ESE 21:05:03 25° ENE 21:08:36 10° N visible
22 Aug 8.1 22:38:44 22° SSW 22:41:03 41° W 22:45:12 10° NNW visible
23 Aug 7.9 21:20:16 15° SE 21:23:24 35° ENE 21:27:22 10° N visible
23 Aug 8.8 22:57:31 19° SW 22:59:39 28° W 23:03:24 10° NW visible
24 Aug 7.3 21:39:04 21° SE 21:41:47 52° ENE 21:46:02 10° N visible
24 Aug 9.3 23:16:19 14° WSW 23:18:18 19° W 23:21:24 10° NW visible
25 Aug 7.0 21:57:51 27° SSE 22:00:14 79° ENE 22:04:36 10° NNW visible
25 Aug 9.7 23:35:07 10° WSW 23:37:00 13° W 23:38:54 10° WNW visible
26 Aug 8.9 20:40:17 10° E 20:43:01 17° ENE 20:45:45 10° NNE visible
26 Aug 7.3 22:16:39 30° S 22:18:43 69° WSW 22:23:05 10° NNW visible
27 Aug 8.5 20:58:12 12° ESE 21:01:18 23° ENE 21:04:45 10° N visible
27 Aug 8.0 22:35:27 29° SSW 22:37:15 45° W 22:41:27 10° NNW visible
28 Aug 8.0 21:16:59 17° ESE 21:19:38 33° ENE 21:23:33 10° N visible
28 Aug 8.6 22:54:14 23° SW 22:55:50 30° W 22:59:42 10° NNW visible
29 Aug 7.4 21:35:47 25° SE 21:38:00 48° ENE 21:42:13 10° N visible
29 Aug 9.1 23:13:02 18° WSW 23:14:28 20° W 23:17:44 10° NW visible
30 Aug 7.0 21:54:35 34° SSE 21:56:26 73° ENE 22:00:48 10° N visible
30 Aug 9.6 23:31:50 12° WSW 23:33:09 14° W 23:35:24 10° WNW visible
31 Aug 8.9 20:36:42 10° E 20:39:15 16° ENE 20:41:50 10° NNE visible
31 Aug 7.2 22:13:23 40° S 22:14:54 75° WSW 22:19:18 10° NNW visible
